Location: Newark
(34.1333°N, 7.9667°W)
Time: 01:16:16
(UTC+00:00)

A-11 Canister half - All Passes

Search period start: 04 December 2021 00:00
Search period end: 14 December 2021 00:00
Orbit: 1524 x 1685 km, 47.3° (Epoch: 03 December)

Date Brightness Start Highest point End Pass type
(mag) Time Alt. Az. Time Alt. Az. Time Alt. Az.
04 Dec - 01:01:25 10° SW 01:11:32 76° SE 01:21:39 10° NE visible
04 Dec - 03:07:33 10° W 03:17:20 49° NNW 03:26:58 10° NE visible
04 Dec - 05:15:19 10° WNW 05:24:35 39° N 05:33:37 10° ENE visible
04 Dec - 07:21:27 10° NW 07:31:22 64° NNE 07:40:55 10° ESE daylight
04 Dec - 09:27:03 10° WNW 09:36:14 47° SW 09:45:08 10° SSE daylight
04 Dec - 22:39:25 10° SSE 22:45:53 19° ESE 22:52:23 10° E night (unlit)
05 Dec - 00:39:45 10° SW 00:49:50 73° SE 00:59:56 10° ENE night (unlit)
05 Dec - 02:45:45 10° W 02:55:33 50° NNW 03:05:16 10° NE visible
05 Dec - 04:53:30 10° WNW 05:02:47 38° N 05:11:51 10° ENE visible
05 Dec - 06:59:43 10° NW 07:09:38 62° NNE 07:19:11 10° ESE daylight
05 Dec - 09:05:17 10° WNW 09:14:36 50° SW 09:23:36 10° SSE daylight
05 Dec - 22:18:14 10° SSE 22:24:16 18° ESE 22:30:19 10° E night (unlit)
06 Dec - 00:18:07 10° SW 00:28:09 70° SE 00:38:12 10° ENE night (unlit)
06 Dec - 02:23:55 10° W 02:33:46 52° NNW 02:43:32 10° NE visible
06 Dec - 04:31:42 10° WNW 04:40:59 38° N 04:50:03 10° ENE visible
06 Dec - 06:37:59 10° NW 06:47:55 60° NNE 06:57:27 10° ESE visible
06 Dec - 08:43:32 10° WNW 08:52:58 52° SW 09:02:05 10° SSE daylight
06 Dec - 21:57:06 10° SSE 22:02:39 16° ESE 22:08:13 10° E night (unlit)
06 Dec - 23:56:30 10° SW 00:06:27 66° SE 00:16:29 10° ENE night (unlit)
07 Dec - 02:02:06 10° W 02:12:00 53° NNW 02:21:50 10° NE visible
07 Dec - 04:09:53 10° WNW 04:19:11 38° N 04:28:16 10° ENE visible
07 Dec - 06:16:16 10° NW 06:26:10 58° NNE 06:35:42 10° ESE visible
07 Dec - 08:21:45 10° WNW 08:31:19 56° SW 08:40:32 10° SSE daylight
07 Dec - 10:32:34 10° WSW 10:34:46 11° WSW 10:36:57 10° SW daylight
07 Dec - 21:36:04 10° SSE 21:41:02 15° ESE 21:46:01 10° E night (unlit)
07 Dec - 23:34:52 10° SW 23:44:46 63° SE 23:54:45 10° ENE night (unlit)
08 Dec - 01:40:19 10° W 01:50:14 55° NNW 02:00:07 10° NE visible
08 Dec - 03:48:03 10° WNW 03:57:22 38° N 04:06:29 10° ENE visible
08 Dec - 05:54:32 10° NW 06:04:25 56° NNE 06:13:57 10° ESE visible
08 Dec - 08:00:01 10° WNW 08:09:40 59° SW 08:18:59 10° SSE daylight
08 Dec - 10:09:47 10° W 10:13:11 12° WSW 10:16:33 10° SW daylight
08 Dec - 21:15:08 10° SSE 21:19:25 13° ESE 21:23:43 10° E night (unlit)
08 Dec - 23:13:16 10° SSW 23:23:05 60° SE 23:33:01 10° ENE night (unlit)
09 Dec - 01:18:31 10° WSW 01:28:28 56° NNW 01:38:24 10° NE visible
09 Dec - 03:26:14 10° WNW 03:35:33 38° N 03:44:42 10° ENE visible
09 Dec - 05:32:47 10° NW 05:42:40 54° NNE 05:52:12 10° E visible
09 Dec - 07:38:16 10° WNW 07:48:01 62° SW 07:57:25 10° SSE daylight
09 Dec - 09:47:21 10° W 09:51:35 14° WSW 09:55:47 10° SSW daylight
09 Dec - 20:54:24 10° SE 20:57:49 12° ESE 21:01:14 10° E night (unlit)
09 Dec - 22:51:41 10° SSW 23:01:25 57° SE 23:11:16 10° ENE night (unlit)
10 Dec - 00:56:44 10° WSW 01:06:42 58° NNW 01:16:41 10° NE visible
10 Dec - 03:04:25 10° WNW 03:13:44 38° N 03:22:55 10° ENE visible
10 Dec - 05:11:03 10° NW 05:20:54 53° NNE 05:30:26 10° E visible
10 Dec - 07:16:31 10° WNW 07:26:21 65° SW 07:35:50 10° SE daylight
10 Dec - 09:25:05 10° W 09:29:59 15° WSW 09:34:51 10° SSW daylight
10 Dec - 20:34:02 10° SE 20:36:12 11° ESE 20:38:23 10° ESE visible
10 Dec - 22:30:06 10° SSW 22:39:45 54° SE 22:49:31 10° ENE night (unlit)
11 Dec - 00:34:56 10° WSW 00:44:56 60° NNW 00:54:58 10° NE night (unlit)
11 Dec - 02:42:36 10° WNW 02:51:55 39° N 03:01:08 10° ENE visible
11 Dec - 04:49:19 10° NW 04:59:08 51° NNE 05:08:39 10° E visible
11 Dec - 06:54:46 10° WNW 07:04:41 69° SW 07:14:15 10° SE visible
11 Dec - 09:02:55 10° W 09:08:24 17° WSW 09:13:48 10° SSW daylight
11 Dec - 22:08:32 10° SSW 22:18:05 51° SE 22:27:46 10° ENE visible
12 Dec - 00:13:10 10° WSW 00:23:12 62° NNW 00:33:16 10° NE night (unlit)
12 Dec - 02:20:46 10° WNW 02:30:07 39° N 02:39:21 10° ENE visible
12 Dec - 04:27:34 10° NW 04:37:22 50° NNE 04:46:53 10° E visible
12 Dec - 06:33:02 10° WNW 06:43:02 72° SW 06:52:38 10° SE visible
12 Dec - 08:40:49 10° W 08:46:47 18° WSW 08:52:41 10° SSW daylight
12 Dec - 21:46:59 10° SSW 21:56:25 48° SE 22:06:00 10° ENE visible
12 Dec - 23:51:25 10° WSW 00:01:26 65° NNW 00:11:33 10° NE night (unlit)
13 Dec - 01:58:57 10° WNW 02:08:18 39° N 02:17:34 10° ENE visible
13 Dec - 04:05:50 10° NW 04:15:36 49° NNE 04:25:06 10° E visible
13 Dec - 06:11:18 10° NW 06:21:21 75° SW 06:31:02 10° SE visible
13 Dec - 08:18:46 10° W 08:25:12 20° WSW 08:31:31 10° SSW daylight
13 Dec - 21:25:28 10° SSW 21:34:45 46° SE 21:44:13 10° ENE visible
13 Dec - 23:29:39 10° WSW 23:39:41 67° NNW 23:49:51 10° NE night (unlit)
